Location: Six Mile Lake
(44.9000°N, 79.7170°W)
Time: 00:14:03
(UTC-04:00)

JY1SAT - Visible Passes

Search period start: 28 June 2022 00:00
Search period end: 08 July 2022 00:00
Orbit: 566 x 585 km, 97.6° (Epoch: 27 June)

Date Brightness Start Highest point End Pass type
(mag) Time Alt. Az. Time Alt. Az. Time Alt. Az.
28 Jun ? 00:02:17 10° WSW 00:04:22 13° W 00:06:28 10° WNW visible
28 Jun ? 22:29:08 16° SSE 22:32:22 62° ENE 22:36:30 10° N visible
29 Jun ? 00:06:17 10° WSW 00:08:02 12° W 00:09:46 10° WNW visible
29 Jun ? 22:32:48 16° SSE 22:36:00 68° ENE 22:40:08 10° N visible
30 Jun ? 00:10:25 10° WSW 00:11:41 11° W 00:12:58 10° WNW visible
30 Jun ? 22:36:28 17° SSE 22:39:36 75° ENE 22:43:46 10° N visible
01 Jul ? 00:14:59 10° W 00:15:21 10° W 00:15:45 10° W visible
01 Jul ? 22:40:08 18° SSE 22:43:13 82° ENE 22:47:23 10° N visible
02 Jul ? 22:43:47 18° SSE 22:46:50 90° NNE 22:51:00 10° NNW visible
03 Jul ? 22:47:27 19° S 22:50:26 83° WSW 22:54:36 10° NNW visible
04 Jul ? 22:51:07 19° S 22:54:02 75° WSW 22:58:12 10° NNW visible
05 Jul ? 22:54:46 19° S 22:57:38 68° WSW 23:01:47 10° NNW visible
06 Jul ? 22:58:25 19° S 23:01:15 62° W 23:05:22 10° NNW visible
07 Jul ? 23:02:05 19° S 23:04:51 56° W 23:08:57 10° NNW visible
